Nagpur Sonegaon, India

7:59 PM IST on February 09, 2016 (GMT +0530)
Nagpur

Weather History for VANP - May, 2012

Change the Weather History Date:

Tuesday, May 22, 2012

  Actual Average Record
Temperature  
Mean Temperature 102 °F -  
Max Temperature 116 °F 102 °F - ()
Min Temperature 89 °F 80 °F - ()
Cooling Degree Days 38    
Growing Degree Days 52 (Base 50)    
Moisture  
Dew Point 54 °F    
Average Humidity 19    
Maximum Humidity 28    
Minimum Humidity 7    
Precipitation  
Precipitation 0.00 in 0.17 in - ()
Sea Level Pressure  
Sea Level Pressure 29.61 in    
Wind  
Wind Speed 6 mph ()    
Max Wind Speed 12 mph    
Max Gust Speed 23 mph    
Visibility 3.2 miles    
Events      
T = Trace of Precipitation, MM = Missing Value Source: Averaged Metar Reports

Daily Weather History Graph

Daily Weather History Graph

Search for Another Location

Airport or City:

Trip Planner

Search our weather history database for the weather conditions in past years. The results will help you decide how hot, cold, wet, or windy it might be!

Date:

Astronomy

May. 22, 2012 Rise Set
Actual Time 5:33 AM IST 6:47 PM IST
Civil Twilight 5:09 AM IST 7:11 PM IST
Nautical Twilight 4:40 AM IST 7:40 PM IST
Astronomical Twilight 4:11 AM IST 8:10 PM IST
Moon 6:24 AM IST (5/22) 8:00 PM IST (5/22)
Length of Visible Light 14h 02m
Length of Day
13h 14m
New Moon, 1% of the Moon is Illuminated
May 22
New Moon
May 29
First Quarter
Jun 4
Full
Jun 11
Last Quarter
Jun 19
New

Hourly Weather History & Observations

Time (IST) Temp. Heat Index Dew Point Humidity Pressure Visibility Wind Dir Wind Speed Gust Speed Precip Events Conditions
12:10 AM 95.0 °F - 46.4 °F 19% 29.62 in 2.5 mi NW 5.8 mph - N/A   Haze
1:10 AM 95.0 °F - 44.6 °F 18% 29.62 in 2.5 mi NNW 4.6 mph - N/A   Haze
2:10 AM 93.2 °F - 44.6 °F 19% 29.62 in 2.5 mi NNW 8.1 mph - N/A   Haze
2:30 AM 93 °F - 51 °F 15% 29.54 in 1 mi NW 8.1 mph - -   Haze
3:10 AM 95.0 °F - 46.4 °F 19% 29.59 in 3.1 mi NNW 6.9 mph - N/A   Haze
4:10 AM 93.2 °F - 50.0 °F 23% 29.59 in 3.1 mi NNW 6.9 mph - N/A   Haze
5:10 AM 93.2 °F 90.8 °F 53.6 °F 26% 29.62 in 3.1 mi NW 8.1 mph - N/A   Haze
5:30 AM 91 °F - 53 °F 18% 29.55 in 2 mi NW 9.2 mph - -   Haze
5:40 AM 93.2 °F 91.3 °F 55.4 °F 28% 29.62 in 3.1 mi NW 9.2 mph - N/A   Haze
6:10 AM 95.0 °F 93.0 °F 55.4 °F 26% 29.65 in 3.1 mi NW 8.1 mph - N/A   Haze
6:40 AM 93.2 °F 91.3 °F 55.4 °F 28% 29.65 in 3.1 mi NW 8.1 mph - N/A   Haze
7:10 AM 95.0 °F 93.0 °F 55.4 °F 26% 29.65 in 3.1 mi NNW 8.1 mph - N/A   Haze
7:40 AM 96.8 °F 95.8 °F 57.2 °F 27% 29.68 in 3.1 mi NNW 9.2 mph - N/A   Haze
8:10 AM 98.6 °F 98.5 °F 59.0 °F 27% 29.68 in 3.7 mi NNW 5.8 mph - N/A   Partly Cloudy
8:30 AM 99 °F - 58 °F 17% 29.61 in 2 mi NNW 9.2 mph - -   Scattered Clouds
8:40 AM 102.2 °F 102.4 °F 59.0 °F 24% 29.68 in 3.7 mi NNW 9.2 mph - N/A   Partly Cloudy
9:10 AM 104.0 °F 104.6 °F 59.0 °F 23% 29.68 in 3.7 mi NNW 5.8 mph - N/A   Partly Cloudy
9:40 AM 105.8 °F 106.8 °F 59.0 °F 22% 29.68 in 3.7 mi NW 10.4 mph - N/A   Partly Cloudy
10:10 AM 107.6 °F 108.2 °F 59.0 °F 20% 29.68 in 3.7 mi NNW 9.2 mph - N/A   Partly Cloudy
10:40 AM 109.4 °F 110.2 °F 59.0 °F 19% 29.68 in 3.7 mi NNW 9.2 mph - N/A   Partly Cloudy
11:10 AM 111.2 °F 111.2 °F 57.2 °F 17% 29.68 in 3.7 mi WNW 6.9 mph - N/A   Partly Cloudy
11:30 AM 110 °F - 53 °F 9% 29.57 in 2 mi NNW 5.8 mph - -   Scattered Clouds
11:40 AM 111.2 °F 110.4 °F 55.4 °F 16% 29.68 in 3.7 mi NNE 5.8 mph - N/A   Scattered Clouds
12:10 PM 113.0 °F 113.0 °F 57.2 °F 16% 29.65 in 3.7 mi NW 6.9 mph - N/A   Scattered Clouds
12:40 PM 114.8 °F 114.6 °F 57.2 °F 15% 29.62 in 3.7 mi NNE 4.6 mph - N/A   Partly Cloudy
1:10 PM 113.0 °F 112.0 °F 55.4 °F 15% 29.62 in 3.7 mi NW 4.6 mph - N/A   Partly Cloudy
1:40 PM 116.6 °F 116.0 °F 55.4 °F 14% 29.62 in 3.7 mi NW 4.6 mph - N/A   Partly Cloudy
2:10 PM 114.8 °F 113.5 °F 55.4 °F 14% 29.59 in 3.7 mi NNW 5.8 mph - N/A   Mostly Cloudy
2:30 PM 110 °F - 50 °F 7% 29.49 in 2 mi NW 6.9 mph - -   Mostly Cloudy
2:40 PM 116.6 °F 116.0 °F 55.4 °F 14% 29.59 in 3.7 mi NW 11.5 mph - N/A   Mostly Cloudy
3:40 PM 114.8 °F - 51.8 °F 13% 29.56 in 3.7 mi NW 11.5 mph - N/A   Partly Cloudy
4:10 PM 113.0 °F - 50.0 °F 13% 29.56 in 3.7 mi West 5.8 mph - N/A   Partly Cloudy
4:40 PM 111.2 °F - 51.8 °F 14% 29.56 in 3.7 mi SW 11.5 mph - N/A   Partly Cloudy
5:10 PM 111.2 °F - 51.8 °F 14% 29.56 in 3.7 mi SSW 11.5 mph 23.0 mph N/A   Partly Cloudy
5:30 PM 106 °F - 48 °F 8% 29.47 in 2 mi SSW 6.9 mph - -  
6:10 PM 109.4 °F 107.9 °F 53.6 °F 16% 29.56 in 3.7 mi South 3.5 mph - N/A   Partly Cloudy
8:30 PM 101 °F - 54 °F 13% 29.54 in 2 mi NNW 4.6 mph - -   Scattered Clouds
8:40 PM 104.0 °F 102.9 °F 55.4 °F 20% 29.62 in 3.7 mi NNW 4.6 mph - N/A   Scattered Clouds
9:10 PM 102.2 °F 100.9 °F 55.4 °F 21% 29.62 in 3.7 mi NNW 3.5 mph - N/A   Partly Cloudy
10:40 PM 95.0 °F 92.7 °F 53.6 °F 25% 29.65 in 3.7 mi SW 2.3 mph - N/A   Partly Cloudy
11:10 PM 95.0 °F 92.7 °F 53.6 °F 25% 29.65 in 3.7 mi Calm Calm - N/A   Partly Cloudy
11:30 PM 90 °F - 59 °F 25% 29.59 in 2 mi Calm Calm - -   Partly Cloudy
11:40 PM 93.2 °F 90.8 °F 53.6 °F 26% 29.65 in 3.7 mi Calm Calm - N/A   Scattered Clouds